Lancaster, PA

5:58 AM EST on November 21, 2017 (GMT -0500)
Lancaster

Weather History for KLNS - November, 2011

Change the Weather History Date:

Sunday, November 6, 2011

  Actual Average Record
Temperature  
Mean Temperature 42 °F -  
Max Temperature 55 °F 55 °F 75 °F (2015)
Min Temperature 28 °F 35 °F 21 °F (1991)
Degree Days  
Heating Degree Days 24    
Moisture  
Dew Point 32 °F    
Average Humidity 73    
Maximum Humidity 89    
Minimum Humidity 51    
Precipitation  
Precipitation 0.00 in - - ()
Sea Level Pressure  
Sea Level Pressure 30.47 in    
Wind  
Wind Speed 2 mph (SSE)    
Max Wind Speed 8 mph    
Max Gust Speed -    
Visibility 9 miles    
Events      
Averages and records for this station are not official NWS values.
T = Trace of Precipitation, MM = Missing Value Source: NWS Daily Summary

Daily Weather History Graph

Daily Weather History Graph

Search for Another Location

Airport or City:

Trip Planner

Search our weather history database for the weather conditions in past years. The results will help you decide how hot, cold, wet, or windy it might be!

Date:

Astronomy

Nov. 06, 2011 Rise Set
Actual Time 6:39 AM EST 4:57 PM EST
Civil Twilight 6:11 AM EST 5:25 PM EST
Nautical Twilight 5:39 AM EST 5:57 PM EST
Astronomical Twilight 5:07 AM EST 6:29 PM EST
Moon 2:40 PM EST (11/6) 2:44 AM EST (11/6)
Length of Visible Light 11h 14m
Length of Day
10h 17m
Waxing Gibbous, 85% of the Moon is Illuminated
Nov 6
Waxing Gibbous
Nov 10
Full
Nov 18
Last Quarter
Nov 25
New
Dec 2
First Quarter

Hourly Weather History & Observations

Time (EST) Temp. Windchill Dew Point Humidity Pressure Visibility Wind Dir Wind Speed Gust Speed Precip Events Conditions
12:53 AM 30.0 °F - 26.1 °F 85% 30.50 in 9.0 mi Calm Calm - N/A   Clear
1:53 AM 32.0 °F - 26.1 °F 79% 30.50 in 8.0 mi Calm Calm - N/A   Clear
1:53 AM 30.9 °F - 26.1 °F 82% 30.50 in 8.0 mi Calm Calm - N/A   Clear
2:53 AM 30.0 °F - 25.0 °F 82% 30.50 in 9.0 mi Calm Calm - N/A   Clear
3:53 AM 30.0 °F 26.5 °F 25.0 °F 82% 30.50 in 9.0 mi ENE 3.5 mph - N/A   Clear
4:53 AM 28.9 °F 25.2 °F 26.1 °F 89% 30.51 in 9.0 mi ESE 3.5 mph - N/A   Clear
5:53 AM 28.0 °F - 25.0 °F 88% 30.53 in 8.0 mi Calm Calm - N/A   Clear
6:53 AM 28.9 °F - 25.0 °F 85% 30.54 in 6.0 mi Calm Calm - N/A   Clear
7:53 AM 32.0 °F - 28.0 °F 85% 30.56 in 8.0 mi Calm Calm - N/A   Clear
8:53 AM 37.0 °F - 32.0 °F 82% 30.56 in 8.0 mi Calm Calm - N/A   Clear
9:53 AM 43.0 °F - 34.0 °F 71% 30.55 in 10.0 mi Calm Calm - N/A   Clear
10:53 AM 48.9 °F - 36.0 °F 61% 30.53 in 10.0 mi South 5.8 mph - N/A   Clear
11:53 AM 52.0 °F - 36.0 °F 54% 30.50 in 10.0 mi SW 6.9 mph - N/A   Clear
12:53 PM 54.0 °F - 37.0 °F 53% 30.47 in 10.0 mi South 8.1 mph - N/A   Clear
1:53 PM 54.0 °F - 36.0 °F 51% 30.44 in 10.0 mi Variable 6.9 mph - N/A   Clear
2:53 PM 55.0 °F - 37.0 °F 51% 30.42 in 10.0 mi South 6.9 mph - N/A   Clear
3:53 PM 54.0 °F - 36.0 °F 51% 30.41 in 10.0 mi SW 6.9 mph - N/A   Clear
4:53 PM 50.0 °F - 37.0 °F 61% 30.41 in 10.0 mi SSE 6.9 mph - N/A   Clear
5:53 PM 46.9 °F - 37.0 °F 68% 30.41 in 10.0 mi South 5.8 mph - N/A   Clear
6:53 PM 46.9 °F - 37.0 °F 68% 30.41 in 10.0 mi South 5.8 mph - N/A   Clear
7:53 PM 46.0 °F 43.1 °F 37.0 °F 71% 30.41 in 10.0 mi South 5.8 mph - N/A   Clear
8:53 PM 42.1 °F - 36.0 °F 79% 30.42 in 10.0 mi Calm Calm - N/A   Clear
9:53 PM 39.9 °F 37.8 °F 36.0 °F 86% 30.41 in 10.0 mi NE 3.5 mph - N/A   Clear
10:53 PM 37.9 °F 35.5 °F 35.1 °F 89% 30.40 in 9.0 mi East 3.5 mph - N/A   Clear